Dewpoint
15 13 13 13 13 13 14 13 13 13 11 8 9 9 7 2 4 7 7 14 14 14 14 14 9 -0 4 11 13 12 12 12 10 8 7 10 10 11 11 10 10 6 9
15 13 14 13 13 13 13 13 13 12 8 5 6 5 -2 -1 -2 -0 10 13 14 14 14 10 6 1 3 10 12 10 11 10 8 9 8 1 7 11 11 12 12 11 5
14 13 14 13 13 13 13 13 13 10 6 2 3 -0 -3 6 11 2 12 13 13 14 13 9 6 7 9 11 10 10 10 9 9 10 10 10 6 10 10 11 11 10 8
14 13 14 13 12 12 12 12 10 5 3 1 0 8 6 11 12 12 8 12 12 13 12 9 8 8 11 10 10 9 10 9 8 9 9 9 10 9 8 3 -0 1 6
14 14 13 11 11 11 10 10 4 1 8 9 4 8 11 10 10 11 11 11 10 11 11 9 7 8 11 10 10 10 9 8 9 10 10 11 11 9 11 12 11 5 -0
13 14 8 5 5 5 5 4 1 11 12 10 6 10 12 12 10 10 12 11 10 10 10 8 7 9 9 9 9 8 8 9 9 10 10 11 12 11 12 12 12 12 11
13 13 1 -0 -0 -0 -0 -0 10 12 12 9 3 9 11 11 10 5 10 10 8 6 7 6 5 12 10 9 9 9 8 9 9 10 10 11 12 12 12 11 10 11 11
14 9 4 4 4 3 4 9 11 12 11 7 10 7 6 8 4 7 10 2 2 0 1 4 9 12 10 9 9 8 8 9 10 9 9 10 11 11 11 9 10 8 8
14 13 9 8 6 4 8 9 11 10 9 8 11 10 6 1 6 6 7 9 11 8 2 9 12 12 10 9 9 8 7 9 9 10 9 10 10 10 9 8 9 7 7
14 13 13 11 7 7 8 7 8 8 7 8 12 10 6 9 10 9 9 11 10 10 8 7 10 10 9 9 8 8 8 9 10 9 9 9 9 9 9 8 10 9 10
13 13 13 11 11 6 9 7 7 3 3 9 11 9 7 9 11 11 11 11 10 9 8 8 8 9 9 9 9 8 8 9 9 9 9 8 9 8 8 8 9 9 10
15 13 12 11 11 11 11 8 6 6 3 10 10 10 9 9 11 11 10 10 9 8 8 8 8 8 9 9 8 9 8 8 9 8 8 9 9 9 6 9 9 9 10
13 14 12 11 11 11 10 10 11 9 10 10 10 9 9 9 9 10 10 9 9 9 7 7 8 8 8 7 7 8 7 8 8 9 8 9 8 9 7 9 9 9 9
14 14 12 11 11 11 10 12 11 11 10 10 10 9 9 9 9 10 9 9 9 8 8 9 8 8 8 7 7 7 7 7 9 8 8 6 7 9 8 6 8 9 8
14 14 12 12 12 12 10 12 12 11 10 10 10 9 9 9 8 8 8 9 9 8 9 8 8 8 8 8 8 8 7 8 8 7 7 8 8 8 8 8 8 8 8
14 14 13 12 13 12 12 12 12 11 11 10 9 9 9 8 8 8 8 9 9 8 8 8 8 8 8 8 8 8 7 8 8 7 8 7 7 7 7 7 8 7 8
14 14 13 13 13 13 13 12 12 12 11 10 10 9 9 8 8 9 8 8 8 8 8 8 8 8 8 8 7 7 7 7 7 8 7 7 7 7 7 6 6 7 7
13 14 14 13 13 13 13 12 11 12 11 10 10 4 8 9 8 9 9 8 8 8 8 9 8 9 8 8 8 7 6 7 7 7 7 7 8 7 5 2 7 7 5
14 13 13 13 14 13 13 12 11 10 12 11 10 6 8 9 5 9 9 9 9 9 9 9 9 9 9 8 8 8 7 7 7 6 7 7 6 7 6 3 3 2 1
14 14 14 14 13 14 13 13 12 10 12 12 11 9 9 8 6 8 9 7 8 9 9 9 9 9 9 9 8 9 8 8 7 7 7 7 7 6 5 6 6 1 -2
13 12 14 14 14 13 13 13 12 10 12 12 11 11 10 10 7 4 7 6 5 4 8 9 9 9 9 9 9 8 8 7 7 7 8 8 7 7 6 5 4 7 1
13 13 13 12 14 13 13 12 11 10 11 11 12 11 11 10 11 8 3 2 3 4 6 9 9 9 9 9 9 9 9 8 8 7 7 7 8 6 6 5 5 4 3
13 13 13 13 13 13 13 12 10 11 11 11 10 11 11 10 10 11 9 3 4 3 5 9 8 8 9 9 9 9 9 8 8 7 6 7 7 7 7 6 6 5 5
13 13 12 13 12 13 12 11 10 10 10 8 8 11 10 11 10 11 11 10 5 4 4 5 5 6 7 7 7 8 8 8 8 8 7 7 7 7 7 6 6 6 5
11 12 12 12 12 12 13 11 10 9 8 8 9 9 11 9 10 11 11 12 11 9 5 6 6 6 8 7 8 7 7 7 7 8 8 8 6 6 6 6 5 5 4
8 10 11 11 12 12 12 12 11 10 11 11 10 9 11 10 10 11 11 11 11 11 10 7 7 7 9 8 8 8 8 8 8 8 8 8 7 8 7 6 6 5 5
Wind_Speed
22 27 26 25 24 26 25 22 21 18 15 12 10 11 12 15 17 16 15 18 19 20 23 22 20 22 22 23 22 23 22 21 20 18 17 17 19 23 23 24 20 17 18
27 30 29 26 26 25 24 21 19 14 12 10 11 11 13 16 15 16 17 18 21 22 20 19 20 20 20 20 19 18 17 16 18 23 19 16 17 21 24 23 25 20 19
27 30 30 28 26 26 23 22 16 12 10 10 12 13 18 19 17 19 18 17 17 16 15 17 19 21 21 18 18 16 16 18 25 22 21 20 19 20 20 23 20 19 22
27 30 29 29 27 25 24 18 15 12 12 11 15 18 21 22 20 17 16 14 15 15 14 16 19 20 18 18 18 14 14 14 21 19 20 23 25 28 28 28 26 24 20
26 27 28 29 27 24 21 18 16 14 14 14 16 20 20 20 20 18 17 14 12 11 12 16 18 18 17 17 16 14 15 20 21 20 21 22 25 26 25 24 23 27 25
27 26 30 29 27 24 21 19 18 19 17 15 16 21 23 20 19 21 17 13 13 14 16 17 16 16 15 15 14 15 20 22 19 20 20 22 24 20 19 20 23 20 21
28 29 31 28 26 24 22 22 21 20 17 14 17 21 20 17 15 15 20 13 13 15 17 18 17 17 18 15 15 17 20 20 15 15 20 22 22 22 18 18 18 20 21
29 31 31 27 25 23 23 22 22 20 16 15 17 16 17 15 13 19 21 17 19 18 19 20 17 17 17 15 13 15 21 18 15 17 19 18 17 17 16 17 17 18 19
31 31 32 28 25 24 23 24 23 19 17 17 17 18 17 21 27 26 24 23 20 20 20 21 17 17 14 12 14 15 21 17 16 16 15 15 13 13 14 15 19 19 18
32 31 30 28 27 27 26 24 21 19 18 20 19 16 20 25 25 25 23 21 20 19 16 16 15 16 15 12 12 16 21 17 12 16 16 13 10 11 14 18 18 20 18
32 32 30 29 27 28 26 25 22 19 21 22 20 17 20 25 23 21 21 20 17 15 12 12 12 13 13 11 10 15 15 12 9 15 16 12 12 11 15 18 18 16 16
37 34 32 30 30 28 27 28 26 23 24 25 23 19 16 19 16 23 21 19 16 14 11 8 10 11 9 8 8 13 11 13 12 12 14 12 15 15 13 18 15 13 13
40 37 34 33 31 31 31 30 26 22 22 23 23 18 17 19 20 23 21 18 16 12 14 20 17 12 10 9 10 11 12 9 7 14 16 16 17 17 17 16 14 13 10
38 39 36 34 34 33 34 30 27 24 22 23 24 19 20 18 20 19 16 16 12 11 14 12 12 12 13 12 12 12 12 11 6 11 12 9 14 15 13 13 11 11 11
38 39 38 36 36 34 35 32 28 27 23 24 24 20 19 20 18 19 18 15 13 15 13 12 12 12 12 12 12 12 12 11 6 12 14 13 14 12 12 12 14 10 11
39 41 41 39 37 35 36 34 31 28 23 24 23 22 19 19 20 18 19 17 14 14 13 13 12 12 11 11 12 12 12 12 9 11 11 11 9 7 12 11 10 9 10
42 39 43 40 40 37 38 35 30 29 26 25 21 20 20 19 21 21 17 18 18 15 15 14 13 12 11 11 12 12 12 11 9 10 7 7 8 9 7 8 12 12 12
47 41 41 40 40 39 40 35 30 29 26 24 22 22 20 18 19 23 19 20 21 19 16 15 13 12 11 11 11 12 11 11 9 9 8 6 6 7 3 9 10 6 6
42 51 42 44 40 39 39 36 32 29 27 25 22 22 22 19 20 20 20 19 21 21 17 15 14 12 12 11 11 11 10 10 10 8 8 6 8 6 5 8 7 7 9
41 44 48 47 42 40 40 38 33 29 28 27 24 22 21 22 21 20 20 19 20 21 17 17 14 12 11 11 10 9 10 8 7 7 6 6 8 10 6 6 9 8 10
43 47 44 44 48 45 40 38 35 34 31 29 27 24 22 20 20 21 21 20 19 19 19 16 15 15 12 11 10 7 6 6 6 6 5 3 5 6 7 8 7 5 9
45 45 47 46 49 44 42 39 37 35 32 29 28 26 24 22 20 20 20 21 19 20 20 18 16 18 14 12 8 7 4 3 2 4 5 4 2 4 6 7 7 8 7
45 46 45 49 47 46 43 41 37 33 31 29 29 29 28 25 24 20 19 19 20 19 21 20 18 17 16 15 9 6 3 4 5 2 3 4 4 6 6 8 9 8 8
45 44 44 43 43 45 43 41 39 38 37 35 33 33 31 28 25 23 19 18 17 19 19 17 15 13 10 12 12 11 10 6 2 2 2 3 1 4 6 8 11 11 9
36 43 41 43 44 41 42 40 38 36 34 34 34 33 32 31 28 26 23 21 20 19 18 16 16 16 14 11 11 11 10 5 5 3 2 4 5 6 8 8 9 9 10
23 33 36 41 44 44 41 39 38 36 36 34 34 34 34 33 31 29 27 24 22 20 18 17 17 17 18 14 14 11 10 6 4 4 4 6 7 6 8 10 10 11 9
Wind_Direction
163 164 164 162 157 156 155 153 150 150 150 148 139 129 124 123 122 114 112 100 113 116 112 111 98 88 99 102 102 105 101 91 87 86 85 94 94 87 87 88 71 75 75
160 162 164 162 160 159 159 157 155 158 150 149 142 134 127 124 121 128 122 113 111 115 120 110 98 92 102 105 99 105 93 84 77 65 61 80 104 96 84 82 76 75 79
156 161 164 165 163 161 162 159 159 160 148 146 140 133 131 120 117 128 133 124 122 117 117 106 95 95 106 107 104 93 83 77 79 71 68 60 87 82 83 90 77 75 85
153 161 164 166 165 163 163 162 161 157 148 138 136 131 133 131 131 127 146 132 137 123 119 107 97 101 109 108 100 93 76 73 89 85 74 76 74 71 77 76 73 75 79
155 155 165 167 168 168 167 165 163 152 141 130 135 138 137 140 149 142 140 151 152 145 128 113 105 111 112 104 98 79 70 74 75 82 83 74 66 72 75 71 69 69 69
154 158 164 167 169 169 169 165 154 146 146 133 141 148 144 151 145 163 148 136 138 144 135 119 113 120 114 106 92 75 80 76 75 75 80 83 68 79 76 73 75 75 68
155 168 161 163 162 164 163 156 154 156 150 134 136 152 159 158 150 152 169 136 133 135 135 125 126 127 117 104 91 81 89 92 85 84 105 98 81 85 81 87 88 78 77
160 164 160 161 161 162 157 157 159 159 151 139 138 140 162 163 169 138 140 131 122 118 128 130 133 126 113 100 89 76 83 82 82 86 90 101 102 93 83 90 88 83 91
170 157 160 161 163 161 159 162 165 162 152 145 138 134 131 127 124 122 123 122 122 117 127 131 123 126 122 111 92 74 84 81 85 83 84 100 96 103 93 95 88 84 94
164 163 162 161 161 161 164 167 166 165 159 152 149 141 134 128 125 124 125 128 129 121 128 141 128 125 124 117 94 75 69 78 72 78 82 93 89 99 98 105 86 96 88
168 168 168 163 161 163 163 167 167 167 158 156 152 147 129 134 125 132 131 134 138 134 130 136 142 128 128 122 90 74 78 79 73 84 80 91 91 79 107 109 95 94 91
168 170 171 164 164 161 161 162 164 158 157 158 158 134 131 138 129 143 141 145 142 131 119 136 134 117 107 99 79 76 86 90 87 75 77 82 84 78 98 101 102 98 100
173 170 173 166 167 163 163 160 162 150 147 153 154 146 146 148 162 145 145 146 145 138 127 112 94 108 107 100 97 102 99 97 94 91 83 72 70 69 85 94 98 93 107
177 174 173 168 172 170 165 164 159 150 157 161 152 158 159 148 147 153 147 144 133 137 133 117 117 107 99 93 95 98 98 96 109 102 91 83 87 81 57 61 92 95 93
179 176 175 172 174 173 168 166 165 158 157 161 163 163 159 151 154 157 160 157 153 143 138 136 127 117 105 97 98 101 107 108 105 95 96 94 90 86 87 71 66 81 90
178 182 178 176 177 177 172 172 170 164 161 160 164 162 163 160 160 159 159 158 160 145 144 135 131 128 109 101 97 104 100 100 77 87 95 99 89 72 74 65 88 63 74
181 182 182 178 181 180 177 175 173 168 170 161 160 165 161 163 164 161 159 157 157 152 142 141 137 128 120 106 99 98 95 104 114 113 98 94 80 84 75 58 51 67 61
189 182 186 181 184 185 181 182 178 178 171 168 164 165 162 165 164 158 165 157 159 157 154 143 140 136 130 118 106 100 98 106 105 100 94 92 90 36 58 49 82 81 45
190 192 188 189 186 188 186 185 184 180 178 175 172 169 167 168 168 162 157 165 162 164 158 153 149 144 138 132 115 113 102 92 95 98 95 88 84 111 31 50 59 38 36
190 189 194 192 192 189 191 186 184 183 186 183 180 175 172 170 169 170 163 170 163 165 162 162 155 147 145 143 131 115 119 121 108 92 91 84 66 63 63 55 33 24 31
196 197 197 189 192 193 192 190 187 188 187 187 185 182 176 174 174 173 173 171 170 165 169 162 162 161 160 154 138 122 109 106 106 115 114 98 44 59 54 54 46 31 3
198 196 199 197 199 195 192 193 191 190 189 191 188 185 184 183 181 179 178 176 173 169 170 167 171 161 169 162 143 124 129 72 110 88 96 93 85 36 36 34 28 34 26
191 199 197 201 201 195 193 193 192 189 191 191 194 191 190 191 191 187 185 184 175 175 173 171 177 173 175 173 170 165 141 119 129 60 98 53 40 30 30 16 9 4 4
185 193 196 197 199 194 197 193 193 193 192 196 196 197 193 193 191 194 191 189 188 184 182 186 183 188 201 202 197 173 154 140 118 152 318 338 1 344 2 11 5 0 359
178 189 195 195 196 190 195 197 196 198 197 195 199 198 198 197 192 197 199 197 189 197 196 190 200 208 213 213 215 214 218 209 208 197 277 307 308 311 320 334 343 347 343
170 181 187 190 189 191 193 197 198 197 196 197 199 199 199 201 200 203 205 204 202 194 197 204 209 214 214 225 218 228 221 224 259 230 245 259 265 282 298 306 313 322 326
Height
1504 1504 1509 1513 1517 1520 1524 1527 1530 1531 1533 1535 1537 1539 1540 1542 1544 1545 1547 1547 1548 1549 1551 1551 1552 1553 1554 1555 1554 1554 1555 1556 1557 1557 1556 1556 1556 1556 1557 1557 1556 1554 1555
1500 1504 1509 1514 1518 1521 1525 1528 1531 1533 1534 1536 1538 1540 1542 1544 1546 1548 1550 1551 1552 1552 1553 1554 1555 1556 1558 1558 1558 1560 1560 1561 1560 1560 1559 1558 1559 1559 1561 1560 1559 1558 1558
1500 1504 1510 1515 1518 1522 1526 1529 1532 1534 1535 1537 1539 1542 1544 1546 1548 1550 1552 1554 1555 1555 1557 1557 1558 1560 1561 1562 1563 1563 1564 1564 1565 1565 1565 1563 1562 1563 1562 1563 1563 1562 1562
1502 1505 1510 1516 1520 1523 1526 1530 1532 1535 1537 1539 1541 1543 1546 1548 1550 1552 1555 1556 1557 1558 1560 1561 1562 1564 1565 1565 1566 1567 1567 1567 1568 1569 1569 1568 1567 1566 1566 1567 1566 1565 1565
1504 1508 1511 1516 1520 1524 1528 1531 1533 1535 1538 1540 1543 1545 1548 1550 1552 1554 1556 1557 1560 1561 1563 1565 1566 1567 1568 1569 1570 1570 1570 1570 1571 1571 1572 1572 1572 1571 1571 1571 1570 1570 1569
1504 1509 1511 1516 1521 1525 1529 1532 1534 1537 1540 1542 1544 1547 1550 1551 1553 1556 1557 1560 1561 1564 1566 1568 1569 1570 1571 1572 1573 1573 1574 1575 1575 1575 1576 1575 1575 1575 1575 1574 1574 1573 1573
1505 1506 1511 1517 1521 1526 1530 1533 1536 1539 1541 1544 1546 1549 1551 1552 1555 1557 1559 1562 1564 1566 1568 1570 1572 1572 1574 1575 1576 1576 1577 1578 1578 1576 1576 1578 1578 1578 1578 1577 1577 1577 1577
1504 1506 1511 1518 1522 1526 1530 1534 1538 1540 1543 1546 1548 1551 1553 1554 1556 1558 1561 1564 1566 1568 1571 1573 1574 1575 1577 1578 1579 1580 1580 1582 1579 1578 1579 1580 1581 1580 1580 1580 1580 1581 1581
1504 1508 1512 1518 1523 1528 1532 1536 1539 1542 1545 1548 1550 1553 1555 1556 1558 1561 1564 1567 1569 1571 1574 1575 1576 1577 1580 1582 1582 1583 1583 1583 1583 1581 1582 1583 1584 1584 1583 1583 1584 1584 1584
1505 1509 1513 1518 1523 1528 1533 1537 1541 1544 1547 1550 1552 1555 1557 1559 1562 1564 1567 1570 1572 1574 1577 1578 1579 1580 1583 1584 1585 1586 1586 1588 1584 1585 1585 1586 1586 1585 1586 1586 1587 1587 1587
1506 1509 1514 1517 1523 1527 1533 1537 1541 1544 1548 1552 1554 1557 1559 1562 1565 1568 1570 1572 1575 1577 1579 1580 1581 1583 1585 1586 1587 1589 1590 1591 1588 1588 1588 1588 1588 1588 1587 1589 1590 1590 1590
1503 1507 1512 1517 1522 1527 1532 1537 1541 1545 1549 1552 1556 1559 1563 1565 1568 1569 1572 1574 1577 1579 1581 1582 1584 1586 1588 1589 1590 1591 1593 1594 1592 1591 1590 1590 1590 1590 1589 1591 1592 1592 1592
1501 1506 1510 1517 1522 1526 1530 1536 1541 1545 1549 1553 1557 1563 1565 1566 1568 1571 1574 1576 1579 1581 1583 1584 1586 1589 1590 1591 1592 1593 1595 1595 1593 1593 1593 1594 1594 1593 1593 1593 1594 1594 1594
1499 1504 1509 1515 1520 1525 1530 1535 1540 1546 1550 1554 1558 1562 1565 1566 1570 1573 1576 1578 1581 1584 1585 1587 1589 1591 1592 1593 1594 1595 1596 1597 1594 1595 1596 1597 1597 1597 1597 1595 1595 1596 1597
1497 1503 1508 1514 1519 1524 1529 1534 1540 1544 1549 1553 1557 1561 1564 1567 1570 1574 1577 1580 1583 1585 1587 1589 1591 1592 1594 1594 1595 1597 1597 1598 1597 1597 1598 1598 1599 1599 1599 1599 1598 1597 1598
1494 1500 1506 1512 1517 1522 1528 1533 1538 1543 1548 1551 1555 1559 1563 1567 1570 1573 1576 1580 1583 1585 1587 1590 1592 1593 1595 1596 1596 1598 1598 1600 1599 1599 1600 1601 1601 1601 1601 1600 1600 1599 1599
1491 1497 1503 1509 1515 1520 1526 1532 1536 1541 1545 1550 1554 1558 1562 1566 1569 1573 1576 1579 1583 1586 1589 1591 1593 1595 1596 1597 1598 1599 1600 1601 1601 1602 1602 1602 1602 1603 1603 1602 1601 1602 1601
1489 1494 1502 1508 1512 1518 1524 1530 1535 1540 1545 1549 1552 1557 1561 1565 1567 1572 1574 1578 1582 1585 1588 1591 1593 1596 1597 1598 1600 1601 1601 1602 1603 1604 1605 1604 1604 1604 1604 1604 1604 1603 1602
1483 1491 1497 1505 1510 1515 1523 1529 1534 1539 1544 1548 1551 1555 1559 1563 1566 1570 1574 1577 1581 1584 1588 1591 1593 1596 1598 1600 1601 1602 1604 1605 1606 1607 1607 1606 1605 1606 1605 1605 1605 1605 1604
1481 1487 1493 1501 1507 1513 1520 1527 1533 1538 1543 1547 1550 1554 1558 1562 1566 1569 1573 1576 1579 1583 1587 1590 1593 1597 1599 1601 1602 1604 1605 1606 1608 1609 1609 1609 1607 1607 1607 1607 1606 1606 1605
1478 1484 1490 1497 1503 1509 1516 1522 1528 1533 1540 1544 1549 1553 1558 1562 1565 1568 1572 1575 1578 1582 1586 1590 1593 1596 1600 1601 1602 1604 1606 1607 1608 1608 1610 1611 1610 1609 1609 1609 1608 1608 1606
1475 1481 1488 1494 1499 1506 1512 1519 1526 1531 1537 1542 1547 1552 1557 1561 1565 1568 1571 1574 1577 1581 1585 1589 1592 1595 1599 1601 1604 1606 1607 1609 1609 1609 1610 1611 1611 1611 1610 1610 1610 1609 1608
1471 1478 1483 1491 1497 1503 1510 1516 1523 1530 1536 1541 1546 1550 1554 1559 1564 1567 1571 1574 1577 1581 1584 1588 1591 1594 1597 1600 1604 1606 1607 1608 1609 1610 1610 1611 1611 1611 1611 1611 1610 1610 1609
1466 1475 1481 1487 1494 1500 1505 1512 1517 1523 1529 1535 1542 1547 1552 1557 1562 1566 1570 1573 1577 1580 1583 1587 1590 1594 1597 1599 1601 1603 1605 1607 1609 1610 1611 1611 1611 1611 1611 1611 1611 1610 1609
1463 1470 1478 1483 1490 1496 1502 1510 1515 1521 1527 1533 1539 1545 1550 1554 1559 1564 1568 1572 1575 1579 1582 1586 1589 1593 1595 1598 1600 1602 1604 1606 1608 1609 1610 1610 1610 1610 1610 1610 1610 1610 1609
1461 1467 1473 1479 1486 1492 1498 1506 1513 1519 1524 1529 1535 1541 1546 1551 1556 1560 1565 1569 1573 1577 1580 1584 1587 1591 1593 1596 1598 1601 1603 1605 1607 1608 1609 1610 1610 1609 1609 1608 1608 1608 1608